Weather History for KBIJ - December, 2012

Change the Weather History Date:

Monday, December 31, 2012

  Actual Average (KDHN) Record (KDHN)
Temperature  
Mean Temperature 47 °F 49 °F  
Max Temperature 62 °F 60 °F 77 °F (1965)
Min Temperature 32 °F 38 °F 21 °F (2000)
Degree Days  
Heating Degree Days 18 16  
Month to date heating degree days 436  
Since 1 July heating degree days 713  
Moisture  
Dew Point 42 °F    
Average Humidity 87    
Maximum Humidity 100    
Minimum Humidity 62    
Precipitation  
Precipitation 0.00 in 0.10 in 2.03 in (1963)
Month to date precipitation 4.39  
Year to date precipitation 53.97  
Sea Level Pressure  
Sea Level Pressure 30.32 in    
Wind  
Wind Speed 0 mph (SW)    
Max Wind Speed 6 mph    
Max Gust Speed -    
Visibility 10 miles    
Events      
T = Trace of Precipitation, MM = Missing Value Source: NWS Daily Summary

Daily Weather History Graph

Daily Weather History Graph

Search for Another Location

Airport or City:

Trip Planner

Search our weather history database for the weather conditions in past years. The results will help you decide how hot, cold, wet, or windy it might be!

Date:

Astronomy

Dec. 31, 2012 Rise Set
Actual Time 7:38 AM EST 5:47 PM EST
Civil Twilight 7:11 AM EST 6:14 PM EST
Nautical Twilight 6:41 AM EST 6:44 PM EST
Astronomical Twilight 6:12 AM EST 7:13 PM EST
Moon 9:03 PM EST (12/31) 9:31 AM EST (12/31)
Length of Visible Light 11h 02m
Length of Day
10h 08m
Waning Gibbous, 90% of the Moon is Illuminated
Dec 31
Waning Gibbous
Jan 4
Last Quarter
Jan 11
New
Jan 18
First Quarter
Jan 26
Full

Hourly Weather History & Observations

Time (EST) Temp. Dew Point Humidity Pressure Visibility Wind Dir Wind Speed Gust Speed Precip Events Conditions
12:15 AM 32.0 °F 32.0 °F 100% 30.43 in 10.0 mi Calm Calm - N/A   Clear
12:35 AM 32.0 °F 32.0 °F 100% 30.40 in 10.0 mi Calm Calm - N/A   Clear
12:55 AM 32.0 °F 32.0 °F 100% 30.40 in 10.0 mi Calm Calm - N/A   Clear
1:15 AM 32.0 °F 32.0 °F 100% 30.39 in 10.0 mi Calm Calm - N/A   Clear
1:35 AM 32.0 °F 32.0 °F 100% 30.39 in 10.0 mi Calm Calm - N/A   Clear
1:55 AM 32.0 °F 32.0 °F 100% 30.40 in 10.0 mi Calm Calm - N/A   Clear
2:15 AM 32.0 °F 32.0 °F 100% 30.39 in 10.0 mi Calm Calm - N/A   Clear
2:55 AM 32.0 °F 32.0 °F 100% 30.40 in 10.0 mi Calm Calm - N/A   Clear
3:15 AM 32.0 °F 32.0 °F 100% 30.39 in 10.0 mi Calm Calm - N/A   Clear
3:35 AM 32.0 °F 32.0 °F 100% 30.38 in 10.0 mi Calm Calm - N/A   Clear
3:55 AM 32.0 °F 32.0 °F 100% 30.38 in 10.0 mi Calm Calm - N/A   Clear
4:15 AM 32.0 °F 32.0 °F 100% 30.38 in 10.0 mi Calm Calm - N/A   Clear
4:35 AM 32.0 °F 32.0 °F 100% 30.38 in 10.0 mi Calm Calm - N/A   Clear
4:55 AM 32.0 °F 32.0 °F 100% 30.38 in 10.0 mi Calm Calm - N/A   Clear
5:15 AM 32.0 °F 32.0 °F 100% 30.38 in 10.0 mi Calm Calm - N/A   Clear
5:35 AM 32.0 °F 32.0 °F 100% 30.39 in 10.0 mi Calm Calm - N/A   Clear
5:55 AM 32.0 °F 32.0 °F 100% 30.38 in 10.0 mi Calm Calm - N/A   Clear
6:15 AM 32.0 °F 32.0 °F 100% 30.39 in 10.0 mi Calm Calm - N/A   Clear
6:35 AM 32.0 °F 32.0 °F 100% 30.38 in 10.0 mi Calm Calm - N/A   Clear
6:55 AM 32.0 °F 32.0 °F 100% 30.39 in 10.0 mi Calm Calm - N/A   Clear
7:15 AM 32.0 °F 32.0 °F 100% 30.39 in 10.0 mi Calm Calm - N/A   Clear
7:35 AM 32.0 °F 32.0 °F 100% 30.38 in 10.0 mi Calm Calm - N/A   Clear
7:55 AM 32.0 °F 32.0 °F 100% 30.37 in 7.0 mi Calm Calm - N/A   Clear
8:15 AM 32.0 °F 32.0 °F 100% 30.38 in 7.0 mi Calm Calm - N/A   Clear
8:35 AM 32.0 °F 32.0 °F 100% 30.38 in 10.0 mi Calm Calm - N/A   Clear
8:55 AM 35.6 °F 35.6 °F 100% 30.38 in 10.0 mi Calm Calm - N/A   Clear
9:15 AM 37.4 °F 35.6 °F 93% 30.38 in 10.0 mi Calm Calm - N/A   Clear
9:35 AM 41.0 °F 35.6 °F 81% 30.38 in 10.0 mi Calm Calm - N/A   Clear
9:55 AM 44.6 °F 37.4 °F 76% 30.39 in 10.0 mi Calm Calm - N/A   Clear
10:15 AM 46.4 °F 37.4 °F 71% 30.40 in 10.0 mi Calm Calm - N/A   Clear
10:35 AM 48.2 °F 37.4 °F 66% 30.40 in 10.0 mi Calm Calm - N/A   Mostly Cloudy
10:55 AM 50.0 °F 37.4 °F 62% 30.40 in 10.0 mi Calm Calm - N/A   Overcast
11:15 AM 50.0 °F 39.2 °F 66% 30.38 in 10.0 mi Calm Calm - N/A   Overcast
11:35 AM 51.8 °F 41.0 °F 67% 30.37 in 10.0 mi Calm Calm - N/A   Overcast
11:55 AM 51.8 °F 41.0 °F 67% 30.37 in 10.0 mi Calm Calm - N/A   Overcast
12:15 PM 53.6 °F 42.8 °F 67% 30.36 in 10.0 mi Calm Calm - N/A   Overcast
12:35 PM 55.4 °F 44.6 °F 67% 30.35 in 10.0 mi Calm Calm - N/A   Mostly Cloudy
12:55 PM 55.4 °F 44.6 °F 67% 30.33 in 10.0 mi Calm Calm - N/A   Mostly Cloudy
1:15 PM 59.0 °F 46.4 °F 63% 30.32 in 10.0 mi West 3.5 mph - N/A   Scattered Clouds
1:35 PM 60.8 °F 48.2 °F 63% 30.30 in 10.0 mi WSW 5.8 mph - N/A   Scattered Clouds
1:55 PM 59.0 °F 48.2 °F 67% 30.29 in 10.0 mi South 5.8 mph - N/A   Scattered Clouds
2:15 PM 60.8 °F 50.0 °F 68% 30.28 in 10.0 mi Calm Calm - N/A   Mostly Cloudy
2:35 PM 62.6 °F 50.0 °F 63% 30.27 in 10.0 mi South 4.6 mph - N/A   Mostly Cloudy
2:55 PM 60.8 °F 50.0 °F 68% 30.26 in 10.0 mi South 3.5 mph - N/A   Scattered Clouds
3:15 PM 60.8 °F 50.0 °F 68% 30.26 in 10.0 mi Calm Calm - N/A   Scattered Clouds
3:35 PM 62.6 °F 51.8 °F 68% 30.26 in 10.0 mi WSW 4.6 mph - N/A   Overcast
3:55 PM 62.6 °F 51.8 °F 68% 30.25 in 10.0 mi Calm Calm - N/A   Scattered Clouds
4:15 PM 62.6 °F 51.8 °F 68% 30.25 in 10.0 mi WSW 5.8 mph - N/A   Mostly Cloudy
4:35 PM 60.8 °F 51.8 °F 72% 30.25 in 10.0 mi Calm Calm - N/A   Overcast
4:55 PM 60.8 °F 51.8 °F 72% 30.25 in 10.0 mi Calm Calm - N/A   Overcast
5:35 PM 60.8 °F 51.8 °F 72% 30.25 in 10.0 mi Calm Calm - N/A   Overcast
5:55 PM 59.0 °F 51.8 °F 77% 30.24 in 10.0 mi Calm Calm - N/A   Overcast
6:15 PM 59.0 °F 51.8 °F 77% 30.24 in 10.0 mi Calm Calm - N/A   Overcast
6:35 PM 57.2 °F 51.8 °F 82% 30.24 in 10.0 mi Calm Calm - N/A   Overcast
6:55 PM 57.2 °F 51.8 °F 82% 30.25 in 10.0 mi Calm Calm - N/A   Overcast
7:15 PM 55.4 °F 51.8 °F 88% 30.24 in 10.0 mi Calm Calm - N/A   Scattered Clouds
7:35 PM 53.6 °F 51.8 °F 94% 30.23 in 10.0 mi Calm Calm - N/A   Mostly Cloudy
8:15 PM 50.0 °F 50.0 °F 100% 30.25 in 10.0 mi Calm Calm - N/A   Clear
8:35 PM 48.2 °F 48.2 °F 100% 30.25 in 10.0 mi Calm Calm - N/A   Scattered Clouds
8:55 PM 48.2 °F 48.2 °F 100% 30.26 in 7.0 mi Calm Calm - N/A   Mostly Cloudy
9:15 PM 50.0 °F 48.2 °F 94% 30.25 in 7.0 mi Calm Calm - N/A   Overcast
9:35 PM 50.0 °F 48.2 °F 94% 30.24 in 10.0 mi Calm Calm - N/A   Overcast
9:55 PM 50.0 °F 50.0 °F 100% 30.23 in 10.0 mi Calm Calm - N/A   Overcast
10:15 PM 50.0 °F 50.0 °F 100% 30.23 in 10.0 mi Calm Calm - N/A   Overcast
10:35 PM 50.0 °F 50.0 °F 100% 30.22 in 10.0 mi Calm Calm - N/A   Mostly Cloudy
10:55 PM 48.2 °F 48.2 °F 100% 30.21 in 10.0 mi Calm Calm - N/A   Clear
11:15 PM 50.0 °F 50.0 °F 100% 30.20 in 10.0 mi Calm Calm - N/A   Clear
11:35 PM 50.0 °F 50.0 °F 100% 30.19 in 10.0 mi Calm Calm - N/A   Clear
11:55 PM 51.8 °F 50.0 °F 94% 30.18 in 10.0 mi Calm Calm - N/A   Clear